[[{"header":{"parameterUnit":"m.s-1","parameterCategory":1,"la1":30.2992,"la2":30.254,"lo1":-89.0895,"lo2":-89.0443,"dy":0.0025,"dx":0.0025,"nx":19,"ny":19,"refTime":"2026-03-17T03:00:00:Z","depth":0,"parameterNumber":2,"parameterNumberName":"U-component_of_WINDS"},"data":[0,0,0,-2.651,-2.651,-2.6501,-2.6501,-2.653,-2.6531,0,0,0,0,0,0,0,0,0,0,0,-2.6535,-2.6536,-2.651,-2.651,-2.6501,-2.6501,-2.653,-2.6531,0,0,0,0,0,0,0,0,0,0,0,-2.6535,-2.6536,-2.6537,-2.651,-2.6501,-2.6501,-2.653,-2.6523,0,0,0,0,0,0,0,0,0,0,-2.6525,-2.657,-2.6535,-2.6537,-2.651,-2.6501,-2.6501,-2.6522,-2.6523,-2.6551,0,-2.6581,0,-2.6557,-2.6535,-2.6536,0,0,0,-2.6493,-2.6569,-2.6545,-2.6537,-2.651,-2.6501,-2.65,-2.6522,-2.6524,-2.6554,-2.6581,-2.6581,-2.6557,-2.6536,-2.6536,-2.6751,-2.6753,0,0,-2.6494,-2.6546,-2.6545,-2.6548,-2.6549,-2.6501,-2.65,-2.6523,-2.6556,-2.6581,-2.6581,-2.6558,-2.6536,-2.6537,-2.675,-2.6752,0,0,0,-2.6507,-2.6547,-2.6522,-2.6548,-2.6543,-2.6501,-2.65,-2.6555,-2.6543,-2.6581,-2.6558,-2.6537,-2.6538,-2.6747,-2.675,-2.689,0,0,0,-2.6506,-2.6554,-2.6524,-2.6555,-2.6543,-2.6548,-2.6533,-2.6541,-2.6542,-2.6558,-2.6537,-2.6538,-2.6745,-2.6749,-2.6882,-2.6948,0,0,0,-2.6528,-2.6556,-2.6563,-2.6558,-2.6556,-2.6547,-2.6535,-2.654,-2.6529,-2.6536,-2.6538,-2.6744,-2.6748,-2.6874,-2.6936,-2.7022,0,0,0,-2.6567,-2.6686,-2.6566,-2.6691,-2.6557,-2.6632,-2.6534,-2.6588,-2.661,-2.6537,-2.6746,-2.675,-2.6872,-2.6928,-2.7014,-2.7105,-2.7147,0,0,-2.6747,-2.671,-2.6779,-2.6671,-2.6782,-2.6629,-2.6761,-2.6732,-2.6686,-2.6733,-2.6737,-2.6884,-2.6935,-2.702,-2.736,-2.7394,0,0,0,-2.6854,-2.6905,-2.6923,-2.6946,-2.6927,-2.6917,-2.6862,-2.6852,-2.689,-2.672,-2.6936,-2.6964,-2.7012,-2.7053,-2.7082,-2.7121,-2.6771,-2.677,-2.677,-2.7184,-2.7118,-2.723,-2.7164,-2.7188,-2.7132,-2.7146,-2.7123,-2.7049,-2.7102,-2.7116,-2.733,-2.738,-2.7401,-2.7443,-2.7156,-2.7157,-2.7157,-2.7157,-2.7444,-2.7507,-2.7406,-2.7479,-2.741,-2.747,-2.7422,-2.7368,-2.7416,-2.7313,-2.7352,-2.7247,-2.744,-2.7473,-2.7167,-2.7166,-2.7164,-2.7163,-2.7163,-2.7655,-2.7674,-2.7659,-2.7688,-2.7718,-2.7647,-2.7698,-2.7632,-2.7571,-2.761,-2.7619,-2.7617,-2.7609,-2.7618,-2.7619,-2.762,-2.7621,-2.7621,-2.7622,-2.788,-2.7859,-2.7909,-2.7901,-2.7909,-2.7911,-2.7857,-2.7864,-2.7855,-2.7803,-2.7803,-2.7727,-2.747,-2.7408,-2.7633,-2.7631,-2.7629,-2.7628,-2.7628,-2.8172,-2.8095,-2.8174,-2.8182,-2.8168,-2.8205,-2.812,-2.814,-2.8136,-2.8165,-2.8079,-2.7899,-2.7857,-2.7834,-2.7783,-2.8091,-2.8091,-2.8091,-2.8091,-2.8351,-2.8323,-2.839,-2.8408,-2.8418,-2.835,-2.8445,-2.8406,-2.8354,-2.8348,-2.8294,-2.8219,-2.8198,-2.8169,-2.8138,-2.809,-2.8469,-2.8469,-2.847,-2.8528,-2.8498,-2.859,-2.8537,-2.8522,-2.8512,-2.86,-2.8627,-2.8551,-2.8484,-2.8343,-2.8327,-2.8206,-2.817,-2.8101,-2.8055,-2.7964,0,0]},{"header":{"parameterUnit":"m.s-1","parameterCategory":1,"la1":30.2992,"la2":30.254,"lo1":-89.0895,"lo2":-89.0443,"dy":0.0025,"dx":0.0025,"nx":19,"ny":19,"refTime":"2026-03-17T03:00:00:Z","depth":0,"parameterNumber":3,"parameterNumberName":"V-component_of_WINDS"},"data":[0,0,0,0.4526,0.4525,0.4447,0.4447,0.4346,0.4345,0,0,0,0,0,0,0,0,0,0,0,0.455,0.455,0.4526,0.4525,0.4447,0.4447,0.4346,0.4345,0,0,0,0,0,0,0,0,0,0,0,0.455,0.455,0.4549,0.4524,0.4447,0.4447,0.4346,0.4405,0,0,0,0,0,0,0,0,0,0,0.448,0.4503,0.455,0.4549,0.4524,0.4447,0.4447,0.4407,0.4401,0.4381,0,0.4365,0,0.4353,0.4338,0.4338,0,0,0,0.4523,0.4509,0.4488,0.4549,0.4523,0.4447,0.4482,0.4404,0.4397,0.4372,0.4363,0.436,0.4352,0.4337,0.4337,0.423,0.423,0,0,0.4527,0.4536,0.4493,0.4483,0.4497,0.4484,0.4479,0.4399,0.4389,0.4363,0.4357,0.435,0.4337,0.4336,0.4231,0.423,0,0,0,0.4541,0.4539,0.452,0.4487,0.4473,0.4482,0.4476,0.4393,0.4386,0.4356,0.4349,0.4336,0.4335,0.4231,0.423,0.4218,0,0,0,0.4543,0.4547,0.4522,0.4526,0.4475,0.4433,0.4472,0.4392,0.4382,0.4349,0.4336,0.4334,0.4231,0.4231,0.4219,0.4209,0,0,0,0.4555,0.4548,0.4538,0.4527,0.4494,0.4434,0.4422,0.4389,0.4378,0.4338,0.4334,0.4232,0.4231,0.422,0.4211,0.4184,0,0,0,0.4569,0.4526,0.4538,0.4487,0.4495,0.4428,0.4423,0.4372,0.4336,0.4336,0.4231,0.423,0.4221,0.4213,0.4185,0.4162,0.4153,0,0,0.4519,0.452,0.449,0.4498,0.4431,0.4439,0.437,0.4327,0.4314,0.4258,0.4256,0.4219,0.4212,0.4184,0.4104,0.4097,0,0,0,0.4476,0.4455,0.4435,0.4403,0.4371,0.4343,0.4311,0.4296,0.4248,0.4288,0.4202,0.4197,0.4181,0.4169,0.4163,0.4148,0.4226,0.4226,0.4226,0.4416,0.4405,0.4353,0.4333,0.4301,0.427,0.4243,0.4217,0.4212,0.4192,0.4175,0.4128,0.4114,0.411,0.4094,0.4162,0.4162,0.4162,0.4162,0.4341,0.4308,0.4306,0.4256,0.4244,0.42,0.4168,0.4167,0.4124,0.4139,0.4124,0.4141,0.4103,0.4088,0.4161,0.4161,0.4161,0.4162,0.4162,0.4299,0.4281,0.4266,0.4219,0.4184,0.4164,0.4123,0.4113,0.4103,0.4088,0.4069,0.4069,0.4067,0.408,0.408,0.408,0.408,0.408,0.4079,0.4261,0.4244,0.4212,0.4177,0.4156,0.4126,0.4096,0.4074,0.4046,0.4042,0.4042,0.4039,0.4102,0.4118,0.4077,0.4077,0.4078,0.4078,0.4078,0.4187,0.4203,0.4154,0.4133,0.4091,0.4057,0.4046,0.4002,0.3982,0.3963,0.3964,0.4013,0.4012,0.4017,0.4029,0.3968,0.3968,0.3968,0.3968,0.4151,0.4151,0.4099,0.4066,0.4032,0.4018,0.3962,0.3938,0.3915,0.3902,0.391,0.3927,0.3932,0.3928,0.3934,0.3945,0.3864,0.3864,0.3864,0.4104,0.4101,0.4055,0.4036,0.4004,0.3975,0.3922,0.3882,0.386,0.3859,0.3891,0.3896,0.3922,0.3932,0.393,0.394,0.3961,0,0]}]]